COSMOS 1275 DEB, 19027

Orbit data source: Space-Track

COSMOS 1275 DEB, 19027 is space debris in LEO originally from a launch on Thu, 04 Jun 1981 UTC launched from the Plesetsk Missile And Space Complex (PKMTR). Debris objects in space refer to the collection of defunct objects orbiting the Earth. Examples of debris include non-operational satellites, rocket bodies, and fragments generated from explosions, collisions, or faulty payload assembly.

Loading next visibility...
Identifier
19027, 1981-053ME
Orbit
LEO
Country
Flag of CISCIS
Related business
Manufacturer
Unknown
Mission
Spacecraft
Bus & Motor
Unknown
Mass
Unknown
Launch date (UTC)
1981-06-04 (45 years ago)
Launch vehicle
Unknown
Launch site
Plesetsk Missile And Space Complex (PKMTR)
Object type
Payload
Rocket body
Debris
Shape & HBR
Unknown shape, 0.1 m
Radar Cross Section
Medium (>0.1 m² and <1 m²)

Expand to show TLE details & history
Last TLE update: 1 day ago

TLE from 1 day ago
0 COSMOS 1275 DEB
1 19027U 81053ME  26254.17755372  .00002081  00000-0  96252-3 0  9990
2 19027  83.0021 159.7695 0058273 255.5615 258.1366 14.19599125 94034
Epoch: 2026-09-11T04:15Z
TLE epoch observation values (Epoch: 2026-09-11T04:15:40.641Z)
Latitude
26.77432°
Longitude
-77.88659°
Altitude
838.885 km
Speed
7.431 km/s
True Right ascension
22h 24m 56s
True Declination
26° 38' 16"
Sunlit
Object was in full shadow at epoch
Visualization orbit readout
Latitude
Unknown
Longitude
Unknown
Altitude
Unknown
Speed
Unknown
Apparent Right ascension
Unknown
Apparent Declination
Unknown
Sunlit
N/A
Visualization observer readout
Local Sidereal Time
02:00:02
Azimuth
Unknown
Elevation
Unknown
Doppler factor
Unknown
Orbital elements
Apogee altitude
865.762 km
Perigee altitude
781.826 km
Semi-major axis
7,201.931 km
Eccentricity
0.00583
Inclination
83.0021°
RAAN
159.7695°
Arg. of periapsis
255.5615°
True anomaly
257.48409°
Mean anomaly
258.1366°
Eccentric anomaly
257.81025°
Mean motion
3.55116 °/min
Orbital period
101.38 mins
BSTAR
0.00096252
Loading maneuver chart data...
Computing Atmospheric mass density...
Loading historical data...
Loading historical data...
Loading historical data...
Loading historical data...
Loading historical data...
Loading historical data...
Loading historical data...

Documentation

Showing up to 5 results
|